Regional Weather Roundup
Issued by NWS New Orleans/Baton Rouge, LA

Home | Current Version | Previous Version | Graphics & Text | Print | Product List | Glossary On
Versions: 1 2 3 4 5 6 7 8 9 10 11 12 13 14 15 16 17 18 19 20 21 22 23 24 25 26 27 28 29 30 31 32 33 34 35 36 37 38 39 40 41 42 43 44 45 46 47 48 49 50
048
ASUS44 KLIX 301611
RWRLIX
NEW ORLEANS REGIONAL WEATHER ROUNDUP
NATIONAL WEATHER SERVICE NEW ORLEANS LA
1100 AM CDT MON MAR 30 2015

NOTE: "FAIR" INDICATES FEW OR NO CLOUDS BELOW 12,000 FEET WITH NO
      SIGNIFICANT WEATHER AND/OR OBSTRUCTIONS TO VISIBILITY.
      SKY/WX - SKY CONDITION AND SIGNIFICANT WEATHER.
      TMP - AIR TEMPERATURE.     DP    - DEWPOINT TEMPERATURE.
      RH  - RELATIVE HUMIDITY.   PRES  - PRESSURE.
      HI  - HEAT INDEX.          WCI   - WIND CHILL INDEX.

*  THESE STATIONS ARE NOT NWS OR FAA STATIONS AND ARE NOT UNDER
   NWS QUALITY CONTROL.

LAZ038-040-048-061>063-065>067-069-301700-
SOUTHEAST LOUISIANA

CITY           SKY/WX    TMP DP  RH WIND       PRES   REMARKS
N.O. AUDUBON   NOT AVBL
N.O. INTL ARPT PTSUNNY   77  64  64 SW12      30.25F
N.O. LAKEFRONT SUNNY     74  63  68 NW7       30.26F
SLIDELL        PTSUNNY   76  62  62 W9        30.25S
BATON ROUGE    MOSUNNY   76  64  66 W9        30.25S
BOOTHVILLE     SUNNY     75  65  70 SW8       30.28S
BELLE CHASSE   PTSUNNY   76  62  62 W9G18     30.25F
BOGALUSA*        N/A     77  62  59 W10       30.26S
GALLIANO*      SUNNY     78  65  63 SW10      30.27S
NEW ROADS*     PTSUNNY   74  63  69 W9        30.25S
GONZALES*        N/A     74  64  71 W8        30.25S
HAMMOND*       PTSUNNY   77  61  57 W12       30.26F
HOUMA*         MOSUNNY   79  66  65 SW6       30.26S
PORT FOURCHON* SUNNY     75  63  64 W8        30.30S

$$

MSZ070-080>082-301700-
SOUTHERN MISSISSIPPI

CITY           SKY/WX    TMP DP  RH WIND       PRES   REMARKS
MCCOMB         PTSUNNY   72  60  66 W8        30.25S
GULFPORT       PTSUNNY   76  61  59 W10G22    30.25R
BILOXI         MOSUNNY   74  64  71 SW10      30.25S
PASCAGOULA     PTSUNNY   79  61  53 W10       30.25S
STENNIS ARPT*  MOSUNNY   73  59  60 MISG      30.26S

$$

COASTAL OBSERVATIONS
LAKE AND NEARSHORE STATIONS

STATION/POSITION TIME  TEMP    WIND        PRES    WAVE
                       AIR SEA DIR/SP/G            HT/PER
                 (UTC) (F)     (DEG/KT/KT) (MB)    (FT/S)
PASCAGOULA       1500   70     230/  6/  8 1024.3
WAVELAND YACHT   1500   73 65  220/  4/ 10 1024.3
GRAND ISLE       1500   72 67   20/  4/  6 1024.8
SOUTHWEST PASS   1500   74 54   CALM  /  3 1025.5
NEW CANAL        1500   69      20/  2/  3 1025.1
SHELL BEACH      1500   68 69   30/  4/  5 1024.9

OFFSHORE STATIONS

STATION/POSITION TIME  TEMP    WIND        PRES    WAVE
                       AIR SEA DIR/SP/G            HT/PER
                 (UTC) (F)     (DEG/KT/KT) (MB)    (FT/S)
64 S DAUPHIN ISL 1550   71 71  190/ 12/ 12 1025.6    3/ 5

$$




USA.gov is the U.S. government's official web portal to all federal, state and local government web resources and services.